Stations météo

réclame
Mon MeteoGroup
Stockholm/observat., Suède (2484): Température de l'air & dewpoint: 10.06.2019 02:00:00 - 16.06.2019 02:00:00 (CEST)Stockholm/observat., Suède (2484): reduced air pressure: 10.06.2019 02:00:00 - 16.06.2019 02:00:00 (CEST)
Date & Time tt [°C] td [°C] ppp [hPa]
16.06.2019 02:00:00 16,5 8,2 1015,5
16.06.2019 01:00:00 17,4 8,3 1015,7
16.06.2019 00:00:00 18,5 7,9 1015,7
15.06.2019 23:00:00 19,5 8,2 1015,5
15.06.2019 22:00:00 21,1 8,4 1015,6
15.06.2019 21:00:00 22,5 8,9 1015,7
15.06.2019 20:00:00 23,2 7,7 1015,8
15.06.2019 19:00:00 24,8 9,5 1015,9
15.06.2019 18:00:00 25,9 9,7 1016,1
15.06.2019 17:00:00 25,4 8,4 1016,3
15.06.2019 16:00:00 26,1 8,6 1016,8
15.06.2019 15:00:00 26,3 9,2 1017,0
15.06.2019 14:00:00 26,1 9,0 1017,1
15.06.2019 13:00:00 25,5 8,9 1017,9
15.06.2019 12:00:00 24,4 9,2 1018,2
15.06.2019 11:00:00 23,7 8,1 1018,4
15.06.2019 10:00:00 22,1 9,9 1018,7
15.06.2019 09:00:00 20,4 10,5 1018,8
15.06.2019 08:00:00 19,2 11,2 1018,7
15.06.2019 07:00:00 17,4 11,2 1018,9
15.06.2019 06:00:00 16,3 10,6 1019,1
15.06.2019 05:00:00 15,4 10,2 1019,1
15.06.2019 04:00:00 15,2 10,0 1019,3
15.06.2019 03:00:00 16,1 10,0 1019,2
15.06.2019 02:00:00 16,8 10,2 1019,4
15.06.2019 01:00:00 17,2 10,3 1019,1
15.06.2019 00:00:00 17,9 10,3 1018,9
14.06.2019 23:00:00 18,8 9,6 1018,9
14.06.2019 22:00:00 19,5 8,8 1018,7
14.06.2019 21:00:00 20,8 8,4 1018,4
14.06.2019 20:00:00 21,7 9,2 1018,1
14.06.2019 19:00:00 22,2 9,7 1018,1
14.06.2019 18:00:00 22,7 11,7 1018,2
14.06.2019 17:00:00 21,7 10,5 1018,2
14.06.2019 16:00:00 21,3 11,3 1018,7
14.06.2019 15:00:00 20,9 11,2 1019,0
14.06.2019 14:00:00 19,5 11,5 1019,0
14.06.2019 13:00:00 17,5 12,0 1019,3
14.06.2019 12:00:00 16,9 11,8 1018,8
14.06.2019 11:00:00 15,4 11,6 1018,8
14.06.2019 10:00:00 14,2 11,0 1018,1
14.06.2019 09:00:00 14,0 11,7 1017,2
14.06.2019 08:00:00 13,8 11,7 1017,1
14.06.2019 07:00:00 13,5 11,7 1016,7
14.06.2019 06:00:00 13,6 12,0 1016,5
14.06.2019 05:00:00 13,5 11,9 1016,2
14.06.2019 04:00:00 13,2 11,8 1016,0
14.06.2019 03:00:00 13,7 12,4 1015,7
14.06.2019 02:00:00 13,9 13,1 1015,7
14.06.2019 01:00:00 14,2 13,6 1015,5
14.06.2019 00:00:00 14,5 14,0 1015,7
13.06.2019 23:00:00 14,9 14,4 1014,9
13.06.2019 22:00:00 15,6 15,3 1014,6
13.06.2019 21:00:00 15,7 15,4 1014,1
13.06.2019 20:00:00 15,7 15,2 1013,3
13.06.2019 19:00:00 15,5 14,9 1013,1
13.06.2019 18:00:00 15,5 14,5 1013,1
13.06.2019 17:00:00 15,4 14,6 1012,5
13.06.2019 16:00:00 15,4 14,6 1012,7
13.06.2019 15:00:00 15,3 14,7 1012,6
13.06.2019 14:00:00 15,2 14,4 1012,4
13.06.2019 13:00:00 15,2 14,6 1012,5
13.06.2019 12:00:00 15,5 15,2 1010,7
13.06.2019 11:00:00 14,7 14,1 1011,9
13.06.2019 10:00:00 14,3 13,8 1011,9
13.06.2019 09:00:00 12,8 12,3 1011,6
13.06.2019 08:00:00 13,2 11,6 1012,9
13.06.2019 07:00:00 12,9 11,1 1012,7
13.06.2019 06:00:00 13,1 10,1 1012,9
13.06.2019 05:00:00 12,6 9,4 1013,6
13.06.2019 04:00:00 12,7 9,0 1014,1
13.06.2019 03:00:00 12,3 9,7 1014,6
13.06.2019 02:00:00 12,2 9,2 1016,5
13.06.2019 01:00:00 12,8 8,5 1017,7
13.06.2019 00:00:00 13,8 6,9 1018,6
12.06.2019 23:00:00 14,1 6,0 1018,5
12.06.2019 22:00:00 14,3 6,1 1018,8
12.06.2019 21:00:00 14,5 6,3 1019,3
12.06.2019 20:00:00 14,6 7,2 1020,1
12.06.2019 19:00:00 15,0 7,5 1019,6
12.06.2019 18:00:00 16,0 7,0 1021,0
12.06.2019 17:00:00 15,7 7,2 1021,4
12.06.2019 16:00:00 15,7 6,9 1021,6
12.06.2019 15:00:00 16,2 5,8 1021,7
12.06.2019 14:00:00 15,4 6,1 1021,1
12.06.2019 13:00:00 15,2 6,0 1022,9
12.06.2019 12:00:00 15,6 6,3 1023,5
12.06.2019 11:00:00 14,8 5,8 1023,2
12.06.2019 10:00:00 13,9 5,8 1023,2
12.06.2019 09:00:00 13,8 5,9 1024,4
12.06.2019 08:00:00 13,2 5,8 1023,6
12.06.2019 07:00:00 12,3 5,7 1022,9
12.06.2019 06:00:00 11,9 5,5 1022,8
12.06.2019 05:00:00 11,9 5,7 1023,4
12.06.2019 04:00:00 12,5 6,3 1022,5
12.06.2019 03:00:00 12,8 6,6 1022,2
12.06.2019 02:00:00 13,1 6,0 1022,3
12.06.2019 01:00:00 13,0 5,2 1022,6
12.06.2019 00:00:00 13,1 5,0 1023,1
11.06.2019 23:00:00 13,3 5,7 1022,8
11.06.2019 22:00:00 13,4 6,3 1022,6
11.06.2019 21:00:00 13,9 7,0 1022,9
11.06.2019 20:00:00 14,1 6,5 1022,5
11.06.2019 19:00:00 14,5 6,6 1022,5
11.06.2019 18:00:00 15,2 7,7 1022,3
11.06.2019 17:00:00 14,5 10,1 1022,3
11.06.2019 16:00:00 14,7 11,1 1022,7
11.06.2019 15:00:00 15,5 12,1 1022,8
11.06.2019 14:00:00 16,6 10,7 1022,2
11.06.2019 13:00:00 18,6 8,6 1022,1
11.06.2019 12:00:00 19,2 8,2 1021,9
11.06.2019 11:00:00 19,1 9,6 1021,6
11.06.2019 10:00:00 19,2 8,8 1021,2
11.06.2019 09:00:00 17,3 8,4 1021,3
11.06.2019 08:00:00 16,7 9,1 1021,3
11.06.2019 07:00:00 15,8 9,7 1021,2
11.06.2019 06:00:00 15,3 9,4 1021,0
11.06.2019 05:00:00 14,3 9,1 1021,5
11.06.2019 04:00:00 12,9 8,4 1020,9
11.06.2019 03:00:00 13,6 8,2 1020,7
11.06.2019 02:00:00 13,7 8,5 1020,7
11.06.2019 01:00:00 13,9 8,3 1020,7
11.06.2019 00:00:00 14,9 7,7 1020,5
10.06.2019 23:00:00 15,5 6,5 1020,4
10.06.2019 22:00:00 17,2 5,8 1020,0
10.06.2019 21:00:00 18,1 6,9 1019,6
10.06.2019 20:00:00 18,7 6,5 1019,5
10.06.2019 19:00:00 19,4 6,5 1019,3
10.06.2019 18:00:00 20,1 6,4 1019,3
10.06.2019 17:00:00 20,4 6,7 1019,3
10.06.2019 16:00:00 21,2 6,3 1019,3
10.06.2019 15:00:00 21,1 3,3 1019,4
10.06.2019 14:00:00 21,8 5,7 1019,6
10.06.2019 13:00:00 21,0 5,0 1019,9
10.06.2019 12:00:00 20,6 5,8 1020,1
10.06.2019 11:00:00 18,5 6,7 1020,1
10.06.2019 10:00:00 18,7 6,8 1020,2
10.06.2019 09:00:00 17,1 7,2 1020,2
10.06.2019 08:00:00 15,4 7,7 1020,0
10.06.2019 07:00:00 14,5 8,0 1020,1
10.06.2019 06:00:00 13,5 7,7 1020,3
10.06.2019 05:00:00 12,9 7,3 1020,3
10.06.2019 04:00:00 12,6 7,1 1020,2
10.06.2019 03:00:00 12,7 7,4 1020,0
10.06.2019 02:00:00 12,8 7,7 1020,0

tt = Température de l'air
td = dewpoint
ppp = reduced air pressure

stations d'obs. à proximité